Weather Roundup
Issued by NWS Chicago, IL

Home | Current Version | Previous Version | Text Only | Print | Product List | Glossary Off
Versions: 1 2 3 4 5 6 7 8 9 10 11 12 13 14 15 16 17 18 19 20 21 22 23 24 25 26 27 28 29 30 31 32 33 34 35 36 37 38 39 40 41 42 43 44 45 46 47 48 49 50

000
NZUS59 KLOT 191903
HRRLOT

CHICAGO AREA WEATHER ROUNDUP
NATIONAL WEATHER SERVICE CHICAGO/ROMEOVILLE IL
200 PM CDT THU APR 19 2018

NOTE: "FAIR" INDICATES FEW OR NO CLOUDS BELOW 12,000 FEET WITH NO
SIGNIFICANT WEATHER AND/OR OBSTRUCTIONS TO VISIBILITY.

* THESE STATIONS ARE NOT UNDER NWS QUALITY CONTROL. THEY ALSO MAY NOT
  REPORT WEATHER SUCH AS PRECIPITATION OR FOG.

ILZ005-006-012>014-019>023-192000-
NORTHEAST ILLINOIS

CITY           SKY/WX    TMP DP  RH WIND       PRES   REMARKS
OHARE            N/A     52  27  38 N10       30.35R
MIDWAY           N/A     52  25  35 N12       30.35R
AURORA           N/A     50  34  54 NW12      30.37R
LANSING*         N/A     46  30  54 NE14      30.37R
JOLIET*          N/A     52  30  42 NW9       30.36S
WAUKEGAN         N/A     47  28  47 NW8       30.35R
DUPAGE AIRPORT   N/A     50  28  42 NW5G18    30.36R
WHEELING         N/A     50  29  44 NW9       30.37R
KANKAKEE*        N/A     51  28  41 N10G20    30.37R
MORRIS*          N/A     49  34  55 NW7       30.37R
LEWIS AIRPORT*   N/A     51  30  44 NW12      30.36R
NORTHERLY ISL    N/A     43  30  60 N8          N/A
$$

WIZ051-052-058>065-066-070>072-192000-
SOUTHEAST WISCONSIN

CITY           SKY/WX    TMP DP  RH WIND       PRES   REMARKS
MILWAUKEE        N/A     47  22  37 NW9       30.36R
KENOSHA*         N/A     45  27  49 NW12      30.36S
RACINE*          N/A     46  23  40 NW8       30.37R
BURLINGTON       N/A     42  25  51 NW10      30.38R
WAUKESHA       SUNNY     39  23  52 NW10      30.38R
WEST BEND        N/A     43  19  39 NW10      30.37R
$$

INZ001>003-010>013-019-020-192000-
NORTHWEST INDIANA

CITY           SKY/WX    TMP DP  RH WIND       PRES   REMARKS
GARY*          MOSUNNY   45  30  57 NW14      30.36
MICHIGAN CITY* NOT AVBL
RENSSELAER*    NOT AVBL
VALPARAISO       N/A     47  29  49 N14G23    30.34R
$$

LMZ740>746-192000-
SOUTHERN LAKE MICHIGAN

STATION/POSITION TIME  SKY/WX   TEMP WIND        PRES    VSBY
                                AIR  DIR/SP/G
                 (UTC)          (F)  (DEG/KT/KT) (MB)    (MI)
HARRISON CRIB    1840            39  350/  9/ 10   N/A
BURNHAM HARBOR   1900            43   10/  9/ 14   N/A
CALUMET HARBOR   1830            41  340/ 12/ 16 1027.6R
BURNS HARBOR     1840            37  330/  9/ 13 1028.8R
MICHIGAN CITY    1840            38  300/ 14/ 15   N/A
$$

ABBREVIATIONS USED IN REMARKS
   TC - TEMPERATURE IN CELSIUS
  WCI - WIND CHILL INDEX
   HX - HEAT INDEX
  VSB - VISIBILITY
$$




USA.gov is the U.S. government's official web portal to all federal, state and local government web resources and services.